Home > Weather > Brandon > Past weeks

Flag for Canada Weather for the Past 2 Weeks in Brandon, Manitoba, Canada

Now
61 °F

Passing clouds.


Feels Like: 61 °F
Forecast: 53 / 71 °F
Wind: 25 mph from Northeast

Location: Brandon

Current Time: May 6, 2016 at 7:17:01 AM

Latest Report: May 6, 2016 at 6:00 AM


Visibility: 15 mi

Pressure: 29.78 "Hg

Humidity: 52%

Dew Point: 43 °F

Location of BrandonLocation

Historic Weather in Brandon — Graph

°F

Brandon Temperature Yesterday

Maximum temperature yesterday: 93 °F (at 2:00 PM)
Minimum temperature yesterday: 50 °F (at 5:00 AM)
Average temperature yesterday: 73 °F

High & Low Weather Summary for the Past Weeks

 TemperatureHumidityPressure
High93 °F (May 5, 2:00 PM)93% (May 2, 6:00 AM)30.40 "Hg (May 2, 6:00 AM)
Low25 °F (Apr 22, 4:00 AM)11% (May 5, 3:00 PM)29.64 "Hg (May 6, 12:00 AM)
Average48 °F43%30.11 "Hg
* Reported Apr 21 6:00 AM — May 6 6:00 AM, Brandon, Weather by CustomWeather, © 2016

Note: Actual official high and low records may vary slightly from our data, if they occured in-between our weather recording intervals... More about our weather records

Advertising

Brandon Weather History for the Previous 24 Hours

Scroll right to see more
 ConditionsComfort  
Time TempWeatherWind HumidityBarometerVisibility
6:00 AM
Fri, May 6
61 °FPassing clouds.25 mph52%29.78 "Hg15 mi
5:00 AM63 °FPassing clouds.22 mph56%29.70 "Hg15 mi
4:00 AM59 °FPassing clouds.16 mph51%29.69 "Hg15 mi
3:00 AM55 °FPassing clouds.10 mph55%29.67 "Hg15 mi
2:00 AM61 °FPassing clouds.13 mph45%29.67 "Hg15 mi
1:00 AM66 °FPassing clouds.12 mph40%29.66 "Hg15 mi
12:00 AM75 °FPartly cloudy.14 mph27%29.64 "Hg15 mi
11:00 PM
Thu, May 5
77 °FPartly cloudy.14 mph30%29.65 "Hg15 mi
10:00 PM81 °FMore clouds than sun.5 mph24%29.65 "Hg15 mi
9:00 PM75 °FOvercast.6 mph25%29.65 "Hg15 mi
8:00 PM86 °FOvercast.6 mph18%29.65 "Hg15 mi
7:00 PM88 °FOvercast.9 mph16%29.67 "Hg15 mi
6:00 PM91 °FPartly sunny.16 mph15%29.68 "Hg15 mi
5:00 PM91 °FPartly sunny.17 mph13%29.69 "Hg15 mi
4:00 PM93 °FPartly sunny.14 mph13%29.70 "Hg15 mi
3:00 PM93 °FPartly sunny.14 mph11%29.71 "Hg15 mi
2:00 PM93 °FPartly sunny.16 mph14%29.72 "Hg15 mi
1:00 PM90 °FPartly sunny.10 mph22%29.75 "Hg15 mi
12:00 PM84 °FPartly sunny.13 mph25%29.76 "Hg15 mi
11:00 AM81 °FPartly sunny.15 mph28%29.76 "Hg15 mi
10:00 AM73 °FHigh level clouds.14 mph36%29.77 "Hg15 mi
9:00 AM66 °FPartly sunny.14 mph46%29.79 "Hg15 mi
8:00 AM59 °FScattered clouds.15 mph55%29.78 "Hg15 mi
7:00 AM52 °FPassing clouds.9 mph67%29.79 "Hg15 mi
Weather by CustomWeather, © 2016

See weather overviewHow to use our weather pages